Weather History for Lawrence, KS

Change the Weather History Date:

Tuesday, October 29, 2013

  Actual Average Record
Temperature  
Mean Temperature 59 °F 51 °F  
Max Temperature 67 °F 64 °F 86 °F (1997)
Min Temperature 50 °F 39 °F 23 °F (2011)
Degree Days  
Heating Degree Days 6 14  
Month to date heating degree days 306 272  
Since 1 July heating degree days 329 335  
Cooling Degree Days 0 0  
Month to date cooling degree days 36 24  
Year to date cooling degree days 1492 1368  
Growing Degree Days 8 (Base 50)    
Moisture  
Dew Point 56 °F    
Average Humidity 93    
Maximum Humidity 100    
Minimum Humidity 86    
Precipitation  
Precipitation 1.28 in 0.07 in 1.28 in (2013)
Month to date precipitation 2.92 2.75  
Year to date precipitation 26.54 34.77  
Sea Level Pressure  
Sea Level Pressure 30.00 in    
Wind  
Wind Speed 8 mph (ESE)    
Max Wind Speed 21 mph    
Max Gust Speed 28 mph    
Visibility 3 miles    
Events Fog , Rain , Thunderstorm    
T = Trace of Precipitation, MM = Missing Value Source: NWS Daily Summary

Daily Weather History Graph

Daily Weather History Graph

Search for Another Location

Airport:

Trip Planner

Search our weather history database for the weather conditions in past years. The results will help you decide how hot, cold, wet, or windy it might be!

Date:

Astronomy

Oct. 29, 2013 Rise Set
Actual Time 7:45 AM CDT 6:23 PM CDT
Civil Twilight 7:17 AM CDT 6:50 PM CDT
Nautical Twilight 6:46 AM CDT 7:22 PM CDT
Astronomical Twilight 6:15 AM CDT 7:53 PM CDT
Moon 2:38 AM CDT (10/29) 3:35 PM CDT (10/29)
Length of Visible Light 11h 33m
Length of Day
10h 38m
Waning Crescent, 25% of the Moon is Illuminated
Oct 29
Waning Crescent
Nov 3
New
Nov 9
First Quarter
Nov 17
Full
Nov 25
Last Quarter

Hourly Weather History & Observations

Time (CDT) Temp. Dew Point Humidity Pressure Visibility Wind Dir Wind Speed Gust Speed Precip Events Conditions
12:52 AM 51.1 °F 48.0 °F 89% 30.09 in 5.0 mi SE 5.8 mph - N/A   Mostly Cloudy
1:52 AM 54.0 °F 48.9 °F 83% 30.08 in 5.0 mi East 5.8 mph - 0.01 in Rain Light Rain
2:13 AM 54.0 °F 50.0 °F 86% 30.07 in 5.0 mi ENE 9.2 mph - 0.04 in Rain , Thunderstorm Light Thunderstorms and Rain
2:37 AM 54.0 °F 51.1 °F 90% 30.09 in 2.0 mi NNE 9.2 mph - 0.16 in Rain , Thunderstorm Heavy Thunderstorms and Rain
2:44 AM 53.1 °F 51.1 °F 93% 30.10 in 1.8 mi ENE 8.1 mph - 0.26 in Rain , Thunderstorm Heavy Thunderstorms and Rain
2:52 AM 54.0 °F 51.1 °F 90% 30.08 in 2.5 mi ENE 10.4 mph - 0.34 in Rain , Thunderstorm Heavy Thunderstorms and Rain
3:00 AM 54.0 °F 51.1 °F 90% 30.08 in 3.0 mi NE 11.5 mph - 0.03 in Rain , Thunderstorm Rain
3:09 AM 54.0 °F 51.1 °F 90% 30.08 in 4.0 mi NE 8.1 mph - 0.05 in Rain , Thunderstorm Rain
3:23 AM 54.0 °F 50.0 °F 86% 30.08 in 6.0 mi NE 13.8 mph - 0.06 in Rain Light Rain
3:30 AM 54.0 °F 50.0 °F 86% 30.09 in 6.0 mi ENE 10.4 mph - 0.06 in Rain Light Rain
3:52 AM 53.1 °F 51.1 °F 93% 30.07 in 2.5 mi ENE 13.8 mph - 0.21 in Rain Heavy Rain
3:57 AM 53.1 °F 51.1 °F 93% 30.07 in 1.8 mi ENE 15.0 mph - 0.07 in Rain , Thunderstorm Heavy Rain
4:04 AM 53.1 °F 51.1 °F 93% 30.05 in 2.0 mi East 20.7 mph - 0.14 in Rain , Thunderstorm Heavy Rain
4:15 AM 53.1 °F 51.1 °F 93% 30.06 in 4.0 mi ENE 17.3 mph 26.5 mph 0.17 in Rain Light Rain
4:35 AM 53.1 °F 51.1 °F 93% 30.05 in 2.5 mi East 13.8 mph - 0.26 in Rain Heavy Rain
4:48 AM 53.6 °F 51.8 °F 94% 30.05 in 4.0 mi East 11.5 mph 20.7 mph 0.30 in Rain Light Rain
4:52 AM 54.0 °F 51.1 °F 90% 30.05 in 4.0 mi East 11.5 mph - 0.31 in Rain Light Rain
5:31 AM 54.0 °F 52.0 °F 93% 30.05 in 4.0 mi East 10.4 mph - 0.13 in Rain Light Rain
5:52 AM 55.0 °F 52.0 °F 89% 30.02 in 5.0 mi East 12.7 mph - 0.16 in Rain Light Rain
6:52 AM 55.0 °F 52.0 °F 89% 30.04 in 3.0 mi East 8.1 mph - 0.13 in Rain Light Rain
7:10 AM 55.0 °F 52.0 °F 89% 30.04 in 2.0 mi East 6.9 mph - 0.06 in Rain Rain
7:29 AM 55.0 °F 52.0 °F 89% 30.03 in 2.5 mi East 9.2 mph - 0.10 in Rain Light Rain
7:33 AM 55.0 °F 52.0 °F 89% 30.03 in 3.0 mi East 10.4 mph - 0.10 in Rain Light Rain
7:52 AM 54.0 °F 52.0 °F 93% 30.04 in 4.0 mi East 8.1 mph - 0.11 in Rain Light Rain
8:52 AM 55.0 °F 52.0 °F 89% 30.06 in 3.0 mi East 6.9 mph - 0.01 in Rain Light Rain
9:52 AM 55.0 °F 53.1 °F 93% 30.06 in 6.0 mi East 10.4 mph - 0.00 in   Overcast
10:52 AM 57.0 °F 54.0 °F 89% 30.05 in 6.0 mi East 6.9 mph - N/A   Overcast
11:19 AM 57.0 °F 55.0 °F 93% 30.04 in 6.0 mi East 8.1 mph - N/A   Overcast
11:52 AM 57.9 °F 55.0 °F 90% 30.03 in 5.0 mi East 9.2 mph - N/A   Overcast
12:39 PM 59.0 °F 55.9 °F 90% 30.01 in 1.8 mi East 8.1 mph - N/A   Overcast
12:52 PM 59.0 °F 57.0 °F 93% 30.01 in 1.5 mi ESE 9.2 mph - N/A   Overcast
1:16 PM 60.1 °F 57.9 °F 93% 29.99 in 3.0 mi East 9.2 mph - N/A   Overcast
1:49 PM 60.8 °F 57.2 °F 88% 29.97 in 1.8 mi SE 9.2 mph - N/A   Overcast
1:50 PM 61.0 °F 57.9 °F 90% 29.96 in 1.8 mi ESE 10.4 mph - N/A   Overcast
2:20 PM 61.0 °F 59.0 °F 93% 29.95 in 2.0 mi SE 9.2 mph - N/A   Overcast
2:29 PM 61.0 °F 59.0 °F 93% 29.95 in 1.8 mi SE 8.1 mph - N/A   Overcast
2:40 PM 61.0 °F 59.0 °F 93% 29.94 in 2.0 mi SE 8.1 mph - N/A   Overcast
2:52 PM 62.1 °F 59.0 °F 90% 29.94 in 2.5 mi SE 9.2 mph - N/A   Overcast
3:01 PM 62.1 °F 59.0 °F 90% 29.94 in 3.0 mi SE 9.2 mph - N/A   Overcast
3:09 PM 62.1 °F 59.0 °F 90% 29.94 in 2.0 mi SE 9.2 mph - N/A   Overcast
3:20 PM 62.1 °F 59.0 °F 90% 29.94 in 2.0 mi SE 9.2 mph - N/A   Overcast
3:30 PM 62.1 °F 60.1 °F 93% 29.94 in 1.8 mi SE 6.9 mph - N/A   Overcast
3:39 PM 62.1 °F 59.0 °F 90% 29.93 in 2.0 mi SE 8.1 mph - N/A   Overcast
3:48 PM 62.6 °F 60.8 °F 94% 29.93 in 1.8 mi ESE 9.2 mph - N/A   Overcast
3:52 PM 62.1 °F 60.1 °F 93% 29.93 in 1.8 mi ESE 6.9 mph - N/A   Overcast
4:04 PM 62.1 °F 60.1 °F 93% 29.94 in 2.0 mi SE 5.8 mph - N/A   Overcast
4:28 PM 62.1 °F 60.1 °F 93% 29.93 in 1.8 mi ESE 6.9 mph - N/A   Overcast
4:38 PM 62.1 °F 60.1 °F 93% 29.93 in 2.5 mi ESE 5.8 mph - N/A   Overcast
4:52 PM 62.1 °F 60.1 °F 93% 29.93 in 2.5 mi ESE 4.6 mph - N/A   Overcast
5:06 PM 62.1 °F 60.1 °F 93% 29.94 in 1.5 mi ESE 5.8 mph - N/A   Overcast
5:45 PM 62.1 °F 60.1 °F 93% 29.93 in 2.0 mi ESE 5.8 mph - 0.00 in   Overcast
5:52 PM 62.1 °F 60.1 °F 93% 29.93 in 2.0 mi SE 5.8 mph - 0.00 in   Overcast
6:33 PM 62.1 °F 60.1 °F 93% 29.93 in 3.0 mi SE 6.9 mph - N/A   Overcast
6:52 PM 62.1 °F 60.1 °F 93% 29.93 in 3.0 mi SE 4.6 mph - N/A   Overcast
7:12 PM 62.1 °F 60.1 °F 93% 29.94 in 2.5 mi ESE 5.8 mph - N/A   Overcast
7:52 PM 63.0 °F 61.0 °F 93% 29.95 in 2.5 mi ESE 4.6 mph - N/A   Overcast
8:26 PM 63.0 °F 61.0 °F 93% 29.96 in 1.5 mi SE 4.6 mph - N/A   Overcast
8:52 PM 63.0 °F 62.1 °F 97% 29.95 in 1.2 mi ESE 6.9 mph - N/A   Overcast
9:16 PM 64.0 °F 62.1 °F 93% 29.96 in 0.8 mi SE 5.8 mph - N/A   Overcast
9:25 PM 64.0 °F 62.1 °F 93% 29.96 in 0.5 mi SE 5.8 mph - N/A Fog Fog
9:52 PM 64.0 °F 62.1 °F 93% 29.96 in 0.5 mi SE 4.6 mph - N/A Fog Fog
10:23 PM 64.0 °F 62.1 °F 93% 29.96 in 1.0 mi ESE 5.8 mph - N/A   Overcast
10:44 PM 64.0 °F 63.0 °F 96% 29.96 in 2.0 mi ESE 4.6 mph - N/A   Overcast
10:52 PM 64.0 °F 63.0 °F 96% 29.96 in 2.0 mi SE 4.6 mph - N/A   Overcast
11:52 PM 64.9 °F 63.0 °F 93% 29.95 in 2.0 mi Calm Calm - N/A   Overcast